TimePST,TemperatureF,Dew PointF,Humidity,Sea Level PressureIn,VisibilityMPH,Wind Direction,Wind SpeedMPH,Gust SpeedMPH,PrecipitationIn,Events,Conditions,WindDirDegrees,DateUTC
12:15 AM,44.6,37.4,76,30.15,10.0,Calm,Calm,-,N/A,,Clear,0,2013-12-02 08:15:00
12:35 AM,42.8,35.6,76,30.14,10.0,Calm,Calm,-,N/A,,Clear,0,2013-12-02 08:35:00
12:55 AM,44.6,35.6,71,30.13,10.0,Calm,Calm,-,N/A,,Clear,0,2013-12-02 08:55:00
1:15 AM,46.4,35.6,66,30.12,10.0,Calm,Calm,-,N/A,,Clear,0,2013-12-02 09:15:00
1:35 AM,44.6,35.6,71,30.12,10.0,Calm,Calm,-,N/A,,Clear,0,2013-12-02 09:35:00
1:55 AM,42.8,35.6,76,30.12,10.0,Calm,Calm,-,N/A,,Clear,0,2013-12-02 09:55:00
2:15 AM,44.6,35.6,71,30.12,10.0,NNE,4.6,-,N/A,,Clear,20,2013-12-02 10:15:00
2:35 AM,42.8,35.6,76,30.11,10.0,North,4.6,-,N/A,,Clear,10,2013-12-02 10:35:00
2:55 AM,42.8,33.8,70,30.11,10.0,NNE,3.5,-,N/A,,Clear,20,2013-12-02 10:55:00
3:15 AM,42.8,33.8,70,30.11,10.0,Calm,Calm,-,N/A,,Clear,0,2013-12-02 11:15:00
3:35 AM,42.8,33.8,70,30.12,10.0,Calm,Calm,-,N/A,,Clear,0,2013-12-02 11:35:00
3:55 AM,41.0,33.8,76,30.11,10.0,Calm,Calm,-,N/A,,Clear,0,2013-12-02 11:55:00
4:15 AM,41.0,33.8,76,30.11,10.0,East,3.5,-,N/A,,Clear,100,2013-12-02 12:15:00
4:35 AM,41.0,35.6,81,30.11,10.0,ENE,5.8,-,N/A,,Clear,60,2013-12-02 12:35:00
4:55 AM,42.8,33.8,70,30.11,10.0,East,6.9,-,N/A,,Clear,80,2013-12-02 12:55:00
5:15 AM,41.0,32.0,70,30.12,10.0,NE,4.6,-,N/A,,Clear,50,2013-12-02 13:15:00
5:35 AM,41.0,32.0,70,30.12,10.0,NE,5.8,-,N/A,,Clear,50,2013-12-02 13:35:00
5:55 AM,42.8,32.0,66,30.11,10.0,Calm,Calm,-,N/A,,Clear,0,2013-12-02 13:55:00
6:15 AM,41.0,32.0,70,30.12,10.0,Calm,Calm,-,N/A,,Clear,0,2013-12-02 14:15:00
6:35 AM,41.0,32.0,70,30.12,10.0,East,4.6,-,N/A,,Clear,80,2013-12-02 14:35:00
6:55 AM,42.8,32.0,66,30.11,10.0,Calm,Calm,-,N/A,,Clear,0,2013-12-02 14:55:00
7:15 AM,42.8,32.0,66,30.10,10.0,NE,3.5,-,N/A,,Clear,40,2013-12-02 15:15:00
7:35 AM,37.4,32.0,81,30.09,10.0,Calm,Calm,-,N/A,,Clear,0,2013-12-02 15:35:00
7:55 AM,42.8,32.0,66,30.10,10.0,Calm,Calm,-,N/A,,Clear,0,2013-12-02 15:55:00
8:15 AM,42.8,35.6,76,30.10,10.0,Calm,Calm,-,N/A,,Clear,0,2013-12-02 16:15:00
8:35 AM,44.6,35.6,71,30.10,10.0,ENE,3.5,-,N/A,,Clear,70,2013-12-02 16:35:00
8:55 AM,46.4,35.6,66,30.10,10.0,Calm,Calm,-,N/A,,Clear,0,2013-12-02 16:55:00
9:15 AM,50.0,35.6,58,30.10,10.0,Calm,Calm,-,N/A,,Clear,0,2013-12-02 17:15:00
9:35 AM,50.0,37.4,62,30.10,10.0,SW,3.5,-,N/A,,Clear,230,2013-12-02 17:35:00
9:55 AM,53.6,35.6,51,30.10,10.0,Calm,Calm,-,N/A,,Clear,0,2013-12-02 17:55:00
10:15 AM,55.4,35.6,47,30.11,10.0,Calm,Calm,-,N/A,,Clear,0,2013-12-02 18:15:00
10:35 AM,59.0,35.6,42,30.10,10.0,Calm,Calm,-,N/A,,Clear,0,2013-12-02 18:35:00
10:55 AM,60.8,37.4,42,30.10,10.0,Calm,Calm,-,N/A,,Clear,0,2013-12-02 18:55:00
11:15 AM,62.6,35.6,37,30.10,10.0,Calm,Calm,-,N/A,,Clear,0,2013-12-02 19:15:00
11:35 AM,64.4,35.6,34,30.08,10.0,Calm,Calm,-,N/A,,Clear,0,2013-12-02 19:35:00
11:55 AM,66.2,39.2,37,30.07,10.0,Calm,Calm,-,N/A,,Clear,0,2013-12-02 19:55:00
12:15 PM,69.8,35.6,28,30.05,10.0,SSW,4.6,-,N/A,,Clear,200,2013-12-02 20:15:00
12:35 PM,71.6,32.0,23,30.03,10.0,Calm,Calm,-,N/A,,Clear,0,2013-12-02 20:35:00
12:55 PM,73.4,26.6,18,30.02,10.0,SW,3.5,-,N/A,,Clear,220,2013-12-02 20:55:00
1:15 PM,73.4,32.0,22,30.00,10.0,SSW,5.8,-,N/A,,Clear,210,2013-12-02 21:15:00
1:35 PM,75.2,28.4,18,29.99,10.0,West,4.6,-,N/A,,Clear,260,2013-12-02 21:35:00
1:55 PM,77.0,28.4,17,29.99,10.0,WNW,6.9,-,N/A,,Clear,290,2013-12-02 21:55:00
2:15 PM,75.2,30.2,19,29.98,10.0,West,6.9,-,N/A,,Clear,280,2013-12-02 22:15:00
2:35 PM,73.4,35.6,25,29.97,10.0,West,10.4,-,N/A,,Clear,280,2013-12-02 22:35:00
2:55 PM,69.8,42.8,38,29.97,10.0,WNW,10.4,-,N/A,,Clear,290,2013-12-02 22:55:00
3:15 PM,68.0,46.4,46,29.97,10.0,West,9.2,-,N/A,,Clear,260,2013-12-02 23:15:00
3:35 PM,66.2,48.2,52,29.96,10.0,West,9.2,-,N/A,,Clear,280,2013-12-02 23:35:00
3:55 PM,64.4,50.0,59,29.96,10.0,West,4.6,-,N/A,,Clear,260,2013-12-02 23:55:00
4:15 PM,62.6,50.0,63,29.96,10.0,Calm,Calm,-,N/A,,Clear,0,2013-12-03 00:15:00
4:35 PM,60.8,50.0,68,29.97,10.0,West,5.8,-,N/A,,Clear,280,2013-12-03 00:35:00
4:55 PM,59.0,50.0,72,29.96,10.0,NW,8.1,-,N/A,,Clear,310,2013-12-03 00:55:00
5:15 PM,57.2,50.0,77,29.97,10.0,WSW,4.6,-,N/A,,Clear,240,2013-12-03 01:15:00
5:35 PM,55.4,50.0,82,29.98,10.0,West,6.9,-,N/A,,Clear,260,2013-12-03 01:35:00
5:55 PM,53.6,50.0,88,29.99,10.0,WSW,5.8,-,N/A,,Clear,250,2013-12-03 01:55:00
6:15 PM,51.8,50.0,94,29.99,10.0,WSW,4.6,-,N/A,,Clear,250,2013-12-03 02:15:00
6:35 PM,51.8,50.0,94,29.99,7.0,SW,4.6,-,N/A,,Clear,220,2013-12-03 02:35:00
6:55 PM,51.8,50.0,94,29.99,7.0,WSW,5.8,-,N/A,,Clear,240,2013-12-03 02:55:00
7:15 PM,50.0,50.0,100,29.98,4.0,WSW,4.6,-,N/A,,Clear,250,2013-12-03 03:15:00
7:35 PM,51.8,50.0,94,29.98,3.0,WSW,3.5,-,N/A,,Overcast,250,2013-12-03 03:35:00
7:55 PM,51.8,50.0,94,29.98,0.8,WNW,3.5,-,N/A,,Overcast,290,2013-12-03 03:55:00
8:15 PM,51.8,50.0,94,29.98,0.5,Calm,Calm,-,N/A,Fog,Fog,0,2013-12-03 04:15:00
8:35 PM,51.8,50.0,94,29.97,0.5,Calm,Calm,-,N/A,Fog,Fog,0,2013-12-03 04:35:00
8:55 PM,51.8,50.0,94,29.96,0.2,Calm,Calm,-,N/A,Fog,Fog,0,2013-12-03 04:55:00
9:15 PM,50.0,50.0,100,29.96,0.2,Calm,Calm,-,N/A,Fog,Fog,0,2013-12-03 05:15:00
9:35 PM,50.0,50.0,100,29.96,0.2,Calm,Calm,-,N/A,,Light Drizzle,0,2013-12-03 05:35:00
9:55 PM,50.0,48.2,94,29.97,0.2,West,4.6,-,N/A,Fog,Fog,280,2013-12-03 05:55:00
10:15 PM,48.2,48.2,100,29.98,0.5,NW,3.5,-,N/A,Fog,Fog,310,2013-12-03 06:15:00
10:35 PM,50.0,48.2,94,29.97,0.5,Calm,Calm,-,N/A,Fog,Fog,0,2013-12-03 06:35:00
10:55 PM,50.0,48.2,94,29.97,0.5,North,3.5,-,N/A,Fog,Fog,10,2013-12-03 06:55:00
11:15 PM,48.2,46.4,93,29.97,0.5,NNE,4.6,-,N/A,Fog,Fog,20,2013-12-03 07:15:00
11:35 PM,46.4,46.4,100,29.97,0.5,NE,3.5,-,N/A,Fog,Fog,50,2013-12-03 07:35:00
11:55 PM,46.4,46.4,100,29.96,0.5,NNE,3.5,-,N/A,Fog,Fog,30,2013-12-03 07:55:00